Overview Statistics Trail Chart Weather Telemetry Raw packets
 

This is the latest recevied weather packets stored in our database for station/object N0KWA. If no packets are shown the sender has not sent any weather packets the latest 10 day(s).

<< 2 3 4 5 6 7 8 >>
Time Temp. Humidity Pressure Rain* Wind** Luminosity Snow
1788548702 25° C 99% 1016.4 hPa 0 mm - 52 W/m² -
1788548398 25° C 99% 1016.5 hPa 0 mm - 34 W/m² -
1788548094 25° C 99% 1016.5 hPa 0 mm - 24 W/m² -
1788547789 24.44° C 99% 1016.9 hPa 0 mm - 21 W/m² -
1788547482 24.44° C 99% 1017 hPa 0 mm - 17 W/m² -
1788547178 24.44° C 99% 1017 hPa 0 mm - 14 W/m² -
1788546873 24.44° C 99% 1017.2 hPa 0 mm - 11 W/m² -
1788546569 24.44° C 99% 1017.2 hPa 0 mm - 10 W/m² -
1788546265 24.44° C 99% 1017.4 hPa 0 mm - 10 W/m² -
1788545959 24.44° C 99% 1017.5 hPa 0 mm - 12 W/m² -
1788545654 24.44° C 99% 1017.7 hPa 0 mm - 11 W/m² -
1788545349 24.44° C 99% 1017.4 hPa 0 mm - 13 W/m² -
1788545038 25° C 99% 1017.8 hPa 0 mm - 14 W/m² -
1788544737 25° C 99% 1017.9 hPa 0 mm - 13 W/m² -
1788544437 24.44° C 99% 1017.6 hPa 0 mm - 12 W/m² -
1788544131 24.44° C 99% 1017.4 hPa 0 mm - 9 W/m² -
1788543827 24.44° C 99% 1017.5 hPa 0 mm - 9 W/m² -
1788543523 24.44° C 99% 1017.4 hPa 0 mm - 9 W/m² -
1788543218 24.44° C 99% 1017.3 hPa 0 mm - 10 W/m² -
1788542941 24.44° C 99% 1017.3 hPa 0 mm - 12 W/m² -
1788542613 24.44° C 99% 1017.4 hPa 1.27 mm - 12 W/m² -
1788542308 24.44° C 99% 1017.4 hPa 1.27 mm - 12 W/m² -
1788542003 24.44° C 99% 1017.6 hPa 0 mm - 14 W/m² -
1788541700 24.44° C 99% 1017.7 hPa 0 mm - 16 W/m² -
1788541395 24.44° C 99% 1017.6 hPa 0 mm - 18 W/m² -

* Rain latest hour (hover to see other rain measurements)
** Current wind speed in m/s (hover to see current wind gust speed)